EW4443 Weather Reports


time (UTC)temp
C
wind
direction
speed
KPH
gust
KPH
rain 1hr
cm
rain 24hr
cm
rain mn
cm
humidity
%
barometer
mb
20260506233110 30 135 1.6 9.7 0.00 0.00 0.00 19 1010.5
20260506232602 30 90 1.6 9.7 0.00 0.00 0.00 20 1010.5
20260506232050 30 203 1.6 9.7 0.00 0.00 0.00 20 1010.5
20260506231551 30 45 1.6 11.3 0.00 0.00 0.00 19 1010.8
20260506231050 30 338 1.6 11.3 0.00 0.00 0.00 19 1010.5
20260506230552 30 270 1.6 8.0 0.00 0.00 0.00 19 1010.5
20260506230052 30 158 0.0 8.0 0.00 0.00 0.00 20 1010.8
20260506225551 30 338 0.0 9.7 0.00 0.00 0.00 20 1010.8
20260506225052 30 23 0.0 9.7 0.00 0.00 0.00 20 1010.8
20260506224551 30 90 1.6 8.0 0.00 0.00 0.00 19 1010.8
20260506224050 30 203 0.0 6.4 0.00 0.00 0.00 19 1011.1
20260506223551 30 45 0.0 6.4 0.00 0.00 0.00 19 1011.1
20260506223051 30 203 1.6 11.3 0.00 0.00 0.00 19 1011.5
20260506222550 30 270 3.2 14.5 0.00 0.00 0.00 17 1011.1
20260506222051 30 293 3.2 14.5 0.00 0.00 0.00 19 1011.1
20260506221821 30 270 1.6 9.7 0.00 0.00 0.00 19 1011.5
20260506221051 30 180 1.6 11.3 0.00 0.00 0.00 19 1011.1
20260506220551 30 113 1.6 11.3 0.00 0.00 0.00 20 1011.5
20260506220322 30 315 0.0 8.0 0.00 0.00 0.00 20 1011.5
20260506215821 30 338 1.6 9.7 0.00 0.00 0.00 20 1011.8
20260506215050 30 180 1.6 9.7 0.00 0.00 0.00 20 1011.8
20260506214823 30 0 1.6 8.0 0.00 0.00 0.00 20 1011.8
20260506214050 30 68 1.6 11.3 0.00 0.00 0.00 19 1011.8
20260506213550 30 23 3.2 11.3 0.00 0.00 0.00 20 1012.1
20260506213052 30 270 1.6 9.7 0.00 0.00 0.00 20 1012.1
20260506212821 30 270 1.6 8.0 0.00 0.00 0.00 20 1012.1
20260506212051 30 23 1.6 8.0 0.00 0.00 0.00 19 1012.1
20260506211551 30 270 1.6 9.7 0.00 0.00 0.00 20 1012.5
20260506211051 30 248 1.6 11.3 0.00 0.00 0.00 19 1012.5
20260506210822 30 248 3.2 12.9 0.00 0.00 0.00 20 1012.5
20260506210050 30 23 1.6 12.9 0.00 0.00 0.00 19 1012.5
20260506205550 30 248 1.6 8.0 0.00 0.00 0.00 20 1012.5
20260506205051 30 0 1.6 8.0 0.00 0.00 0.00 20 1012.5
20260506204822 30 315 0.0 6.4 0.00 0.00 0.00 20 1012.8
20260506204051 30 270 0.0 8.0 0.00 0.00 0.00 20 1012.8
20260506203822 30 293 1.6 8.0 0.00 0.00 0.00 20 1012.8
20260506203051 30 23 1.6 6.4 0.00 0.00 0.00 22 1012.8
20260506202551 29 23 1.6 14.5 0.00 0.00 0.00 20 1012.8
20260506202049 29 293 3.2 14.5 0.00 0.00 0.00 20 1013.3
20260506201550 29 293 1.6 11.3 0.00 0.00 0.00 22 1013.3
20260506201320 28 315 3.2 11.3 0.00 0.00 0.00 20 1013.3
20260506200549 28 225 0.0 8.0 0.00 0.00 0.00 20 1012.8
20260506200051 28 270 1.6 6.4 0.00 0.00 0.00 20 1013.3
20260506195555 28 293 1.6 6.4 0.00 0.00 0.00 20 1013.3
20260506195551 28 270 0.0 6.4 0.00 0.00 0.00 22 1013.3
20260506194822 28 270 0.0 8.0 0.00 0.00 0.00 20 1013.3
20260506194051 28 225 1.6 8.0 0.00 0.00 0.00 22 1013.6
20260506193549 28 338 1.6 14.5 0.00 0.00 0.00 22 1013.3
20260506193321 28 270 1.6 14.5 0.00 0.00 0.00 22 1013.6
20260506192549 28 23 0.0 6.4 0.00 0.00 0.00 22 1013.9
20260506192050 28 90 1.6 6.4 0.00 0.00 0.00 22 1013.9
20260506191820 28 338 1.6 6.4 0.00 0.00 0.00 24 1013.9
20260506191051 27 338 0.0 4.8 0.00 0.00 0.00 24 1013.9
20260506190550 27 0 0.0 9.7 0.00 0.00 0.00 22 1013.9
20260506190050 27 23 3.2 11.3 0.00 0.00 0.00 24 1013.9
20260506185821 27 45 1.6 11.3 0.00 0.00 0.00 24 1013.9
20260506185320 27 315 1.6 8.0 0.00 0.00 0.00 22 1014.3
20260506184549 26 338 1.6 8.0 0.00 0.00 0.00 22 1014.3
20260506184048 26 180 1.6 8.0 0.00 0.00 0.00 25 1014.3
20260506183550 26 203 1.6 6.4 0.00 0.00 0.00 24 1014.3
20260506183050 26 90 0.0 6.4 0.00 0.00 0.00 24 1014.3
20260506182531 26 158 0.0 6.4 0.00 0.00 0.00 25 1014.6
20260506182032 26 293 1.6 8.0 0.00 0.00 0.00 25 1014.6
20260506181531 26 180 1.6 9.7 0.00 0.00 0.00 25 1014.6
20260506181031 26 0 1.6 9.7 0.00 0.00 0.00 25 1014.6
20260506180530 26 270 1.6 9.7 0.00 0.00 0.00 25 1015.0
20260506180030 26 270 1.6 9.7 0.00 0.00 0.00 25 1014.6
20260506175530 26 293 0.0 6.4 0.00 0.00 0.00 27 1014.6
20260506175031 26 270 0.0 4.8 0.00 0.00 0.00 27 1015.0
20260506174530 26 248 0.0 4.8 0.00 0.00 0.00 27 1014.6
20260506174031 25 113 0.0 8.0 0.00 0.00 0.00 27 1014.6
20260506173531 25 0 0.0 8.0 0.00 0.00 0.00 29 1015.0
20260506173031 25 68 1.6 8.0 0.00 0.00 0.00 29 1014.6
20260506172802 25 0 1.6 8.0 0.00 0.00 0.00 29 1014.6
20260506172030 25 158 1.6 8.0 0.00 0.00 0.00 27 1014.6
20260506171530 25 270 1.6 8.0 0.00 0.00 0.00 27 1014.6
20260506171030 25 315 0.0 4.8 0.00 0.00 0.00 27 1014.6
20260506170530 25 45 0.0 3.2 0.00 0.00 0.00 29 1014.6
20260506170031 25 203 0.0 4.8 0.00 0.00 0.00 29 1014.6
20260506165801 25 45 0.0 6.4 0.00 0.00 0.00 29 1015.0
20260506165305 25 135 0.0 8.0 0.00 0.00 0.00 30 1015.0
20260506164531 24 203 1.6 8.0 0.00 0.00 0.00 29 1014.6
20260506164031 24 203 0.0 3.2 0.00 0.00 0.00 30 1014.6
20260506163531 24 225 0.0 4.8 0.00 0.00 0.00 30 1015.0
20260506163029 23 113 0.0 4.8 0.00 0.00 0.00 30 1014.6
20260506162529 23 158 0.0 4.8 0.00 0.00 0.00 30 1014.6
20260506162030 23 158 0.0 6.4 0.00 0.00 0.00 30 1014.6
20260506161529 23 270 0.0 6.4 0.00 0.00 0.00 31 1015.0
20260506161031 22 90 0.0 4.8 0.00 0.00 0.00 31 1014.6
20260506160531 22 180 0.0 3.2 0.00 0.00 0.00 31 1015.0
20260506160030 22 0 0.0 6.4 0.00 0.00 0.00 32 1015.0
20260506155531 22 338 0.0 6.4 0.00 0.00 0.00 34 1014.6
20260506155031 21 338 0.0 4.8 0.00 0.00 0.00 35 1014.6
20260506154800 21 338 0.0 3.2 0.00 0.00 0.00 35 1014.6
20260506154029 21 113 0.0 3.2 0.00 0.00 0.00 35 1014.6
20260506153529 21 23 0.0 4.8 0.00 0.00 0.00 35 1014.6
20260506153301 21 180 1.6 4.8 0.00 0.00 0.00 35 1014.6
20260506152531 21 23 0.0 4.8 0.00 0.00 0.00 35 1015.0
20260506152031 21 315 0.0 4.8 0.00 0.00 0.00 37 1014.6
20260506151530 20 0 0.0 3.2 0.00 0.00 0.00 37 1014.6
20260506151030 20 68 0.0 3.2 0.00 0.00 0.00 37 1014.6
20260506150531 20 23 0.0 1.6 0.00 0.00 0.00 37 1014.6
20260506150029 20 135 0.0 1.6 0.00 0.00 0.00 37 1014.6
20260506145529 20 203 0.0 3.2 0.00 0.00 0.00 39 1014.3
20260506145029 20 158 0.0 3.2 0.00 0.00 0.00 39 1014.6
20260506144529 19 113 0.0 1.6 0.00 0.00 0.00 40 1014.6
20260506144302 18 113 0.0 1.6 0.00 0.00 0.00 40 1014.6
20260506143530 18 90 0.0 1.6 0.00 0.00 0.00 41 1014.6
20260506143031 18 90 0.0 1.6 0.00 0.00 0.00 41 1014.6
20260506142530 18 135 0.0 3.2 0.00 0.00 0.00 41 1014.3
20260506142031 17 203 0.0 3.2 0.00 0.00 0.00 43 1014.3
20260506141800 17 180 0.0 0.0 0.00 0.00 0.00 41 1014.6
20260506141024 17 248 0.0 3.2 0.00 0.00 0.00 44 1014.3
20260506140510 17 203 0.0 6.4 0.00 0.00 0.00 44 1014.3
20260506140241 16 203 0.0 6.4 0.00 0.00 0.00 45 1014.3
20260506135511 16 158 0.0 3.2 0.00 0.00 0.00 45 1014.3
20260506135012 16 293 0.0 3.2 0.00 0.00 0.00 45 1013.9
20260506134512 16 225 0.0 0.0 0.00 0.00 0.00 45 1013.9
20260506134012 15 270 0.0 0.0 0.00 0.00 0.00 46 1013.9
20260506133512 15 135 0.0 0.0 0.00 0.00 0.00 46 1013.9
20260506133241 15 68 0.0 0.0 0.00 0.00 0.00 48 1013.9
20260506132510 15 45 0.0 0.0 0.00 0.00 0.00 48 1013.9
20260506132010 15 338 0.0 0.0 0.00 0.00 0.00 48 1013.9
20260506131510 15 113 0.0 0.0 0.00 0.00 0.00 49 1013.9
20260506131010 15 68 0.0 0.0 0.00 0.00 0.00 49 1013.9
20260506130511 15 45 0.0 0.0 0.00 0.00 0.00 48 1013.9
20260506130011 15 45 0.0 0.0 0.00 0.00 0.00 46 1013.6
20260506125513 15 158 0.0 0.0 0.00 0.00 0.00 46 1013.6
20260506125012 15 113 0.0 0.0 0.00 0.00 0.00 46 1013.6
20260506124511 15 158 0.0 0.0 0.00 0.00 0.00 46 1013.6
20260506124011 15 113 0.0 0.0 0.00 0.00 0.00 46 1013.6
20260506123510 15 248 0.0 0.0 0.00 0.00 0.00 46 1013.3
20260506123011 15 270 0.0 0.0 0.00 0.00 0.00 46 1013.3
20260506122511 15 113 0.0 0.0 0.00 0.00 0.00 45 1013.3
20260506122011 15 68 0.0 0.0 0.00 0.00 0.00 46 1013.3
20260506121512 15 158 0.0 0.0 0.00 0.00 0.00 46 1013.3
20260506121243 15 203 0.0 0.0 0.00 0.00 0.00 46 1013.3
20260506120511 15 90 0.0 0.0 0.00 0.00 0.00 48 1012.8
20260506120011 15 90 0.0 0.0 0.00 0.00 0.00 46 1012.8
20260506115510 15 90 0.0 0.0 0.00 0.00 0.00 45 1012.8
20260506115242 15 90 0.0 0.0 0.00 0.00 0.00 45 1012.8
20260506114741 15 248 0.0 0.0 0.00 0.00 0.00 46 1012.8
20260506114010 15 248 0.0 0.0 0.00 0.00 0.00 45 1012.8
20260506113511 16 248 0.0 1.6 0.00 0.00 0.00 45 1012.8
20260506113011 16 225 0.0 1.6 0.00 0.00 0.00 45 1012.8
20260506112511 16 293 0.0 1.6 0.00 0.00 0.00 45 1012.8
20260506112243 16 225 0.0 0.0 0.00 0.00 0.00 45 1012.8
20260506111512 16 225 0.0 0.0 0.00 0.00 0.00 44 1012.8
20260506111010 16 113 0.0 0.0 0.00 0.00 0.00 45 1012.8
20260506110510 16 270 0.0 0.0 0.00 0.00 0.00 45 1012.8
20260506110242 16 270 0.0 0.0 0.00 0.00 0.00 44 1012.8
20260506105510 16 270 0.0 0.0 0.00 0.00 0.00 44 1012.8
20260506105010 16 270 0.0 0.0 0.00 0.00 0.00 44 1012.8
20260506104742 16 270 0.0 0.0 0.00 0.00 0.00 44 1012.5
20260506104012 16 180 0.0 0.0 0.00 0.00 0.00 44 1012.8
20260506103958 16 203 0.0 3.2 0.00 0.00 0.00 44 1012.5
20260506102953 16 180 0.0 3.2 0.00 0.00 0.00 43 1012.5
20260506102453 16 180 0.0 0.0 0.00 0.00 0.00 44 1012.5
20260506102223 16 293 0.0 0.0 0.00 0.00 0.00 45 1012.5
20260506101451 16 315 0.0 0.0 0.00 0.00 0.00 43 1012.5
20260506100951 16 45 0.0 0.0 0.00 0.00 0.00 43 1012.5
20260506100451 16 270 0.0 0.0 0.00 0.00 0.00 43 1012.5
20260506095953 16 315 0.0 0.0 0.00 0.00 0.00 43 1012.1
20260506095453 16 270 0.0 0.0 0.00 0.00 0.00 43 1012.1
20260506094952 16 113 0.0 0.0 0.00 0.00 0.00 43 1012.5
20260506094452 16 248 0.0 0.0 0.00 0.00 0.00 43 1012.1
20260506093952 16 158 0.0 0.0 0.00 0.00 0.00 43 1012.1
20260506093451 16 0 0.0 0.0 0.00 0.00 0.00 44 1012.1
20260506092951 17 0 0.0 0.0 0.00 0.00 0.00 43 1012.1
20260506092452 17 0 0.0 0.0 0.00 0.00 0.00 44 1012.1
20260506091952 17 0 0.0 0.0 0.00 0.00 0.00 43 1012.1
20260506091452 17 0 0.0 0.0 0.00 0.00 0.00 43 1012.1
20260506091223 17 0 0.0 0.0 0.00 0.00 0.00 40 1012.1
20260506090459 17 0 0.0 0.0 0.00 0.00 0.00 40 1012.1
20260506090453 17 0 0.0 0.0 0.00 0.00 0.00 40 1011.8
20260506085452 17 0 0.0 0.0 0.00 0.00 0.00 40 1011.8
20260506084952 17 0 0.0 0.0 0.00 0.00 0.00 40 1012.1
20260506084451 17 0 0.0 0.0 0.00 0.00 0.00 40 1011.8
20260506083951 17 0 0.0 0.0 0.00 0.00 0.00 40 1011.8
20260506083723 17 0 0.0 0.0 0.00 0.00 0.00 39 1012.1
20260506082952 17 248 0.0 0.0 0.00 0.00 0.00 40 1011.8
20260506082452 17 248 0.0 0.0 0.00 0.00 0.00 40 1012.1
20260506081952 17 270 0.0 0.0 0.00 0.00 0.00 39 1011.8
20260506081730 17 270 0.0 0.0 0.00 0.00 0.00 40 1011.8
20260506081453 17 270 0.0 0.0 0.00 0.00 0.00 39 1011.8
20260506080451 18 270 0.0 0.0 0.00 0.00 0.00 39 1011.8
20260506073453 18 225 0.0 0.0 0.00 0.00 0.00 37 1011.8
20260506072952 18 90 0.0 0.0 0.00 0.00 0.00 37 1011.8
20260506072452 18 90 0.0 0.0 0.00 0.00 0.00 37 1011.8
20260506071951 18 90 0.0 0.0 0.00 0.00 0.00 37 1011.8
20260506071452 18 90 0.0 0.0 0.00 0.00 0.00 37 1011.5
20260506070951 18 23 0.0 0.0 0.00 0.00 0.00 37 1011.5
20260506070451 18 113 0.0 0.0 0.00 0.00 0.00 37 1011.5
20260506062451 20 180 0.0 0.0 0.00 0.00 0.00 35 1011.1
20260506061951 20 180 0.0 0.0 0.00 0.00 0.00 35 1011.1
20260506061451 20 135 0.0 0.0 0.00 0.00 0.00 34 1011.1
20260506061223 20 135 0.0 0.0 0.00 0.00 0.00 34 1011.1
20260506060452 20 135 0.0 0.0 0.00 0.00 0.00 34 1011.1
20260506050952 21 315 0.0 3.2 0.00 0.00 0.00 29 1011.1
20260506050452 21 270 0.0 3.2 0.00 0.00 0.00 29 1010.8
20260506044932 21 180 0.0 1.6 0.00 0.00 0.00 29 1010.8
20260506044432 21 180 0.0 1.6 0.00 0.00 0.00 29 1010.8
20260506043933 21 293 0.0 4.8 0.00 0.00 0.00 27 1010.8
20260506043434 21 225 0.0 4.8 0.00 0.00 0.00 27 1010.8
20260506042933 21 270 0.0 4.8 0.00 0.00 0.00 27 1010.5
20260506042433 22 225 0.0 6.4 0.00 0.00 0.00 27 1010.5
20260506041934 22 270 0.0 6.4 0.00 0.00 0.00 27 1010.5
20260506041434 22 225 1.6 4.8 0.00 0.00 0.00 27 1010.5
20260506040932 22 203 0.0 6.4 0.00 0.00 0.00 27 1010.5
20260506040703 22 270 1.6 6.4 0.00 0.00 0.00 27 1010.5
20260506035932 22 180 0.0 11.3 0.00 0.00 0.00 27 1010.0
20260506035432 22 248 1.6 11.3 0.00 0.00 0.00 27 1010.0
20260506034915 22 225 1.6 9.7 0.00 0.00 0.00 27 1010.0
20260506034415 22 270 1.6 9.7 0.00 0.00 0.00 27 1010.0
20260506033916 22 270 1.6 9.7 0.00 0.00 0.00 25 1010.0
20260506033416 22 270 1.6 9.7 0.00 0.00 0.00 25 1010.0
20260506033146 22 270 1.6 12.9 0.00 0.00 0.00 25 1010.0
20260506032413 22 0 1.6 12.9 0.00 0.00 0.00 25 1010.0
20260506031914 22 293 0.0 4.8 0.00 0.00 0.00 25 1009.7
20260506031414 22 293 1.6 11.3 0.00 0.00 0.00 25 1009.7
20260506030913 22 248 1.6 11.3 0.00 0.00 0.00 25 1009.3
20260506030415 22 248 1.6 9.7 0.00 0.00 0.00 25 1009.7
20260506030145 23 293 1.6 6.4 0.00 0.00 0.00 25 1009.3
20260506025415 23 270 1.6 6.4 0.00 0.00 0.00 25 1009.3
20260506024915 23 270 1.6 9.7 0.00 0.00 0.00 25 1009.3
20260506024415 23 248 1.6 9.7 0.00 0.00 0.00 25 1009.0
20260506023913 23 293 1.6 11.3 0.00 0.00 0.00 25 1009.0
20260506023415 23 248 3.2 11.3 0.00 0.00 0.00 25 1009.0
20260506022913 23 225 3.2 12.9 0.00 0.00 0.00 24 1009.0
20260506022413 23 270 3.2 12.9 0.00 0.00 0.00 24 1009.0
20260506021914 23 225 3.2 12.9 0.00 0.00 0.00 24 1008.7
20260506021414 23 225 1.6 11.3 0.00 0.00 0.00 24 1008.7
20260506020914 23 203 3.2 12.9 0.00 0.00 0.00 24 1008.7
20260506020414 23 270 1.6 12.9 0.00 0.00 0.00 24 1008.3
20260506015914 24 0 1.6 14.5 0.00 0.00 0.00 22 1008.3
20260506015413 24 180 3.2 14.5 0.00 0.00 0.00 22 1008.3
20260506014913 24 270 3.2 12.9 0.00 0.00 0.00 22 1008.0
20260506014412 24 270 1.6 9.7 0.00 0.00 0.00 22 1008.3
20260506013912 24 248 1.6 12.9 0.00 0.00 0.00 22 1008.3
20260506013414 25 293 3.2 14.5 0.00 0.00 0.00 22 1008.3
20260506013144 25 270 3.2 14.5 0.00 0.00 0.00 22 1008.3
20260506012413 25 248 3.2 12.9 0.00 0.00 0.00 22 1008.0
20260506011913 25 248 3.2 12.9 0.00 0.00 0.00 24 1008.3
20260506011414 25 248 3.2 12.9 0.00 0.00 0.00 22 1008.0
20260506010912 25 180 3.2 12.9 0.00 0.00 0.00 24 1008.0
20260506010412 25 113 1.6 12.9 0.00 0.00 0.00 24 1008.0
20260506005912 25 203 1.6 11.3 0.00 0.00 0.00 24 1008.0
20260506005643 25 203 3.2 12.9 0.00 0.00 0.00 24 1008.0
20260506005628 25 270 3.2 14.5 0.00 0.00 0.00 24 1008.0
20260506004355 25 270 3.2 14.5 0.00 0.00 0.00 24 1008.0
20260506004125 25 270 3.2 12.9 0.00 0.00 0.00 24 1008.0
20260506003354 25 270 3.2 16.1 0.00 0.00 0.00 24 1008.0
20260506002854 25 270 3.2 16.1 0.00 0.00 0.00 24 1007.6
20260506002353 25 293 1.6 11.3 0.00 0.00 0.00 22 1007.6
20260506001852 26 225 3.2 11.3 0.00 0.00 0.00 24 1007.6
20260506001352 26 225 3.2 16.1 0.00 0.00 0.00 22 1007.6
20260506001125 26 248 3.2 16.1 0.00 0.00 0.00 22 1007.6
20260506000625 26 180 3.2 17.7 0.00 0.00 0.00 22 1007.6
20260505235854 26 203 3.2 17.7 0.00 0.00 0.00 22 1007.6
20260505235355 26 203 3.2 14.5 0.00 0.00 0.00 22 1007.6
20260505234853 26 293 3.2 14.5 0.00 0.00 0.00 22 1007.6
20260505234625 26 248 3.2 12.9 0.00 0.00 0.00 22 1007.3
20260505234124 26 180 3.2 16.1 0.00 0.00 0.00 22 1007.6
20260505233624 26 225 3.2 17.7 0.00 0.00 0.00 22 1007.6